Change the Weather History Date:

Wednesday, March 26, 2014

  Actual Average (EGFF) Record (EGFF)
Temperature  
Mean Temperature 46 °F -  
Max Temperature 53 °F 51 °F 64 °F (2012)
Min Temperature 39 °F 40 °F 30 °F (2013)
Degree Days  
Heating Degree Days 19    
Moisture  
Dew Point 39 °F    
Average Humidity 75    
Maximum Humidity 100    
Minimum Humidity 35    
Precipitation  
Precipitation 0.00 in - - ()
Sea Level Pressure  
Sea Level Pressure 30.07 in    
Wind  
Wind Speed 7 mph ()    
Max Wind Speed 16 mph    
Max Gust Speed -    
Visibility 6.2 miles    
Events      
Averages and records for this station are not official NWS values.
T = Trace of Precipitation, MM = Missing Value Source: Averaged Metar Reports

Daily Weather History Graph

Daily Weather History Graph

Search for Another Location

Airport or City:

Trip Planner

Search our weather history database for the weather conditions in past years. The results will help you decide how hot, cold, wet, or windy it might be!

Date:

Astronomy

Mar. 26, 2014 Rise Set
Actual Time 6:06 AM GMT 6:40 PM GMT
Civil Twilight 5:33 AM GMT 7:14 PM GMT
Nautical Twilight 4:52 AM GMT 7:54 PM GMT
Astronomical Twilight 4:10 AM GMT 8:37 PM GMT
Moon 3:36 AM GMT (3/26) 1:33 PM GMT (3/26)
Length of Visible Light 13h 41m
Length of Day
12h 33m
Waning Crescent, 23% of the Moon is Illuminated
Mar 26
Waning Crescent
Mar 30
New
Apr 7
First Quarter
Apr 15
Full
Apr 22
Last Quarter

Hourly Weather History & Observations

Time (GMT) Temp. Windchill Dew Point Humidity Pressure Visibility Wind Dir Wind Speed Gust Speed Precip Events Conditions
12:00 AM 46 °F - 44 °F 90% 30.09 in 3 mi North 5.8 mph - -   Mostly Cloudy
12:50 AM 44.6 °F 40.7 °F 42.8 °F 93% 30.09 in 5.0 mi North 6.9 mph - N/A   Mostly Cloudy
1:00 AM 45 °F - 43 °F 91% 30.09 in 5 mi North 6.9 mph - -   Mostly Cloudy
1:50 AM 44.6 °F 43.1 °F 42.8 °F 93% 30.09 in 3.7 mi NNE 3.5 mph - N/A   Overcast
2:00 AM 44 °F - 43 °F 96% 30.10 in 4 mi NNE 3.5 mph - -   Overcast
2:50 AM 44.6 °F 41.4 °F 42.8 °F 93% 30.09 in 3.7 mi North 5.8 mph - N/A   Mostly Cloudy
3:00 AM 44 °F - 42 °F 92% 30.10 in 4 mi North 5.8 mph - -   Mostly Cloudy
3:50 AM 44.6 °F - 42.8 °F 93% 30.09 in - North 2.3 mph - N/A   Mostly Cloudy
4:00 AM 44 °F - 43 °F 93% 30.11 in 2 mi North 2.3 mph - -   Mostly Cloudy
4:50 AM 42.8 °F 38.6 °F 42.8 °F 100% 30.09 in 4.3 mi NE 6.9 mph - N/A   Scattered Clouds
5:00 AM 44 °F - 42 °F 92% 30.12 in 4 mi NE 6.9 mph - -   Mostly Cloudy
5:50 AM 41.0 °F 37.1 °F 39.2 °F 93% 30.09 in 3.7 mi NE 5.8 mph - N/A   Scattered Clouds
6:00 AM 41 °F - 40 °F 93% 30.12 in 4 mi NE 5.8 mph - -   Scattered Clouds
6:50 AM 39.2 °F 35.0 °F 39.2 °F 100% 30.12 in - NE 5.8 mph - N/A   Unknown
7:00 AM 40 °F - 39 °F 94% 30.14 in 3 mi NE 5.8 mph - -  
7:50 AM 42.8 °F 36.6 °F 41.0 °F 93% 30.15 in 5.6 mi NNE 11.5 mph - N/A   Unknown
8:00 AM 42 °F - 41 °F 93% 30.16 in 6 mi NNE 11.5 mph - -  
8:50 AM 44.6 °F 39.7 °F 41.0 °F 87% 30.15 in 5.0 mi ENE 9.2 mph - N/A   Haze
9:00 AM 44 °F - 41 °F 83% 30.17 in 4 mi ENE 9.2 mph - -   Mostly Cloudy
9:50 AM 46.4 °F 42.4 °F 39.2 °F 76% 30.15 in 4.3 mi NNE 8.1 mph - N/A   Haze
10:00 AM 47 °F - 40 °F 69% 30.16 in 4 mi NNE 8.1 mph - -   Scattered Clouds
10:50 AM 50.0 °F - 39.2 °F 66% 30.15 in - NE 6.9 mph - N/A   Clear
11:00 AM 49 °F - 38 °F 57% 30.16 in 6 mi NE 6.9 mph - -   Partly Cloudy
11:50 AM 50.0 °F - 35.6 °F 58% 30.12 in 6.2 mi ENE 4.6 mph - N/A   Scattered Clouds
12:00 PM 50 °F - 36 °F 47% 30.14 in 7 mi ENE 4.6 mph - -   Partly Cloudy
12:50 PM 51.8 °F - 41.0 °F 67% 30.09 in 6.2 mi West 5.8 mph - N/A   Scattered Clouds
1:00 PM 52 °F - 41 °F 55% 30.11 in 5 mi West 5.8 mph - -   Partly Cloudy
1:50 PM 51.8 °F - 32.0 °F 47% 30.06 in 6.2 mi North 6.9 mph - N/A   Partly Cloudy
2:00 PM 52 °F - 32 °F 35% 30.09 in 12 mi North 6.9 mph - -   Scattered Clouds
2:50 PM 50.0 °F - 42.8 °F 76% 30.06 in 6.2 mi West 15.0 mph - N/A   Haze
3:00 PM 49 °F - 42 °F 70% 30.06 in 4 mi West 15.0 mph - -   Scattered Clouds
3:50 PM 51.8 °F - 35.6 °F 54% 30.04 in 6.2 mi North 13.8 mph - N/A   Scattered Clouds
4:00 PM 51 °F - 35 °F 42% 30.05 in 9 mi North 13.8 mph - -   Partly Cloudy
4:50 PM 50.0 °F - 35.6 °F 58% 30.01 in 6.2 mi North 16.1 mph - N/A   Mostly Cloudy
5:00 PM 49 °F - 35 °F 48% 30.03 in 9 mi North 16.1 mph - -   Mostly Cloudy
5:50 PM 46.4 °F 40.1 °F 35.6 °F 66% 30.01 in 6.2 mi North 15.0 mph - N/A   Mostly Cloudy
6:00 PM 47 °F - 36 °F 54% 30.03 in 7 mi North 15.0 mph - -   Scattered Clouds
6:50 PM 44.6 °F 39.2 °F 37.4 °F 76% 30.01 in 5.6 mi North 10.4 mph - N/A   Mostly Cloudy
7:00 PM 45 °F - 37 °F 66% 30.02 in 6 mi North 10.4 mph - -   Scattered Clouds
7:50 PM 44.6 °F 39.2 °F 37.4 °F 76% 30.01 in 6.2 mi North 10.4 mph - N/A   Overcast
8:00 PM 44 °F - 36 °F 66% 30.01 in 9 mi North 10.4 mph - -   Scattered Clouds
8:50 PM 42.8 °F 38.0 °F 37.4 °F 81% 29.98 in 6.2 mi ENE 8.1 mph - N/A   Mostly Cloudy
9:00 PM 43 °F - 36 °F 70% 30.00 in 10 mi ENE 8.1 mph - -   Mostly Cloudy
9:50 PM 42.8 °F 37.0 °F 33.8 °F 70% 29.98 in 6.2 mi ENE 10.4 mph - N/A   Overcast
10:00 PM 42 °F - 34 °F 66% 29.99 in 16 mi ENE 10.4 mph - -   Overcast
10:50 PM 41.0 °F 35.8 °F 33.8 °F 76% 29.95 in 6.2 mi ENE 8.1 mph - N/A   Mostly Cloudy
11:00 PM 41 °F - 34 °F 67% 29.97 in 19 mi ENE 8.1 mph - -   Scattered Clouds
11:50 PM 41.0 °F 36.4 °F 35.6 °F 81% 29.95 in 6.2 mi NE 6.9 mph - N/A   Overcast